date,time,SUV Intensity [MED/Hr],UV Index,Daily total [MED],Since Last [MED]
13/06/2023,00:02:54,0.000,0.0,0.0,0.0
13/06/2023,00:03:55,0.000,0.0,0.0,0.0
13/06/2023,00:04:55,0.000,0.0,0.0,0.0
13/06/2023,00:05:54,-0.001,0.0,0.0,0.0
13/06/2023,00:06:55,0.000,0.0,0.0,0.0
13/06/2023,00:07:53,0.000,0.0,0.0,0.0
13/06/2023,00:08:54,0.000,0.0,0.0,0.0
13/06/2023,00:09:54,0.000,0.0,0.0,0.0
13/06/2023,00:10:54,0.000,0.0,0.0,0.0
13/06/2023,00:11:54,0.000,0.0,0.0,0.0
13/06/2023,00:12:55,0.000,0.0,0.0,0.0
13/06/2023,00:13:54,0.000,0.0,0.0,0.0
13/06/2023,00:14:54,0.000,0.0,0.0,0.0
13/06/2023,00:15:55,0.000,0.0,0.0,0.0
13/06/2023,00:16:55,0.000,0.0,0.0,0.0
13/06/2023,00:17:54,0.000,0.0,0.0,0.0
13/06/2023,00:18:54,0.000,0.0,0.0,0.0
13/06/2023,00:19:54,0.000,0.0,0.0,0.0
13/06/2023,00:20:54,0.000,0.0,0.0,0.0
13/06/2023,00:21:54,0.000,0.0,0.0,0.0
13/06/2023,00:22:55,0.000,0.0,0.0,0.0
13/06/2023,00:23:55,0.000,0.0,0.0,0.0
13/06/2023,00:24:54,0.000,0.0,0.0,0.0
13/06/2023,00:25:54,0.000,0.0,0.0,0.0
13/06/2023,00:26:54,0.000,0.0,0.0,0.0
13/06/2023,00:27:54,0.000,0.0,0.0,0.0
13/06/2023,00:28:54,0.000,0.0,0.0,0.0
13/06/2023,00:29:54,0.000,0.0,0.0,0.0
13/06/2023,00:30:54,0.000,0.0,0.0,0.0
13/06/2023,00:31:54,0.000,0.0,0.0,0.0
13/06/2023,00:32:54,0.000,0.0,0.0,0.0
13/06/2023,00:33:55,0.000,0.0,0.0,0.0
13/06/2023,00:34:54,0.000,0.0,0.0,0.0
13/06/2023,00:35:55,0.000,0.0,0.0,0.0
13/06/2023,00:36:55,0.000,0.0,0.0,0.0
13/06/2023,00:37:54,0.000,0.0,0.0,0.0
13/06/2023,00:38:55,0.000,0.0,0.0,0.0
13/06/2023,00:39:54,0.000,0.0,0.0,0.0
13/06/2023,00:40:54,0.000,0.0,0.0,0.0
13/06/2023,00:42:16,0.000,0.0,0.0,0.0
13/06/2023,00:43:55,0.000,0.0,0.0,0.0
13/06/2023,00:44:55,0.000,0.0,0.0,0.0
13/06/2023,00:45:55,0.000,0.0,0.0,0.0
13/06/2023,00:46:55,0.000,0.0,0.0,0.0
13/06/2023,00:47:54,0.000,0.0,0.0,0.0
13/06/2023,00:48:55,0.000,0.0,0.0,0.0
13/06/2023,00:49:55,0.000,0.0,0.0,0.0
13/06/2023,00:50:55,0.000,0.0,0.0,0.0
13/06/2023,00:51:54,0.000,0.0,0.0,0.0
13/06/2023,00:52:54,0.000,0.0,0.0,0.0
13/06/2023,00:53:54,0.000,0.0,0.0,0.0
13/06/2023,00:54:55,0.000,0.0,0.0,0.0
13/06/2023,00:55:54,0.000,0.0,0.0,0.0
13/06/2023,00:56:54,0.000,0.0,0.0,0.0
13/06/2023,00:57:55,0.000,0.0,0.0,0.0
13/06/2023,00:58:55,0.000,0.0,0.0,0.0
13/06/2023,00:59:54,0.000,0.0,0.0,0.0
13/06/2023,01:00:55,0.000,0.0,0.0,0.0
13/06/2023,01:01:54,0.000,0.0,0.0,0.0
13/06/2023,01:02:55,0.000,0.0,0.0,0.0
13/06/2023,01:03:54,0.000,0.0,0.0,0.0
13/06/2023,01:04:55,0.000,0.0,0.0,0.0
13/06/2023,01:05:54,0.000,0.0,0.0,0.0
13/06/2023,01:06:54,0.000,0.0,0.0,0.0
13/06/2023,01:07:55,0.000,0.0,0.0,0.0
13/06/2023,01:08:53,0.000,0.0,0.0,0.0
13/06/2023,01:09:55,0.000,0.0,0.0,0.0
13/06/2023,01:10:54,0.000,0.0,0.0,0.0
13/06/2023,01:11:55,0.000,0.0,0.0,0.0
13/06/2023,01:12:55,0.000,0.0,0.0,0.0
13/06/2023,01:13:55,0.000,0.0,0.0,0.0
13/06/2023,01:14:54,0.000,0.0,0.0,0.0
13/06/2023,01:15:55,0.000,0.0,0.0,0.0
13/06/2023,01:16:55,0.000,0.0,0.0,0.0
13/06/2023,01:17:54,0.000,0.0,0.0,0.0
13/06/2023,01:18:55,0.000,0.0,0.0,0.0
13/06/2023,01:19:54,0.000,0.0,0.0,0.0
13/06/2023,01:20:55,0.000,0.0,0.0,0.0
13/06/2023,01:21:54,0.001,0.0,0.0,0.0
13/06/2023,01:22:55,0.000,0.0,0.0,0.0
13/06/2023,01:23:55,0.000,0.0,0.0,0.0
13/06/2023,01:24:54,0.000,0.0,0.0,0.0
13/06/2023,01:25:55,0.000,0.0,0.0,0.0
13/06/2023,01:26:55,0.000,0.0,0.0,0.0
13/06/2023,01:27:54,0.000,0.0,0.0,0.0
13/06/2023,01:28:55,0.000,0.0,0.0,0.0
13/06/2023,01:29:54,0.000,0.0,0.0,0.0
13/06/2023,01:30:55,0.000,0.0,0.0,0.0
13/06/2023,01:31:55,0.000,0.0,0.0,0.0
13/06/2023,01:32:54,0.001,0.0,0.0,0.0
13/06/2023,01:33:55,0.000,0.0,0.0,0.0
13/06/2023,01:34:54,0.000,0.0,0.0,0.0
13/06/2023,01:35:54,0.000,0.0,0.0,0.0
13/06/2023,01:36:54,0.001,0.0,0.0,0.0
13/06/2023,01:37:55,0.000,0.0,0.0,0.0
13/06/2023,01:38:55,0.000,0.0,0.0,0.0
13/06/2023,01:39:55,0.000,0.0,0.0,0.0
13/06/2023,01:40:54,0.000,0.0,0.0,0.0
13/06/2023,01:41:54,0.000,0.0,0.0,0.0
13/06/2023,01:42:55,0.000,0.0,0.0,0.0
13/06/2023,01:43:55,0.000,0.0,0.0,0.0
13/06/2023,01:44:55,0.000,0.0,0.0,0.0
13/06/2023,01:45:54,0.000,0.0,0.0,0.0
13/06/2023,01:46:54,0.000,0.0,0.0,0.0
13/06/2023,01:47:55,0.000,0.0,0.0,0.0
13/06/2023,01:48:55,0.000,0.0,0.0,0.0
13/06/2023,01:49:55,0.000,0.0,0.0,0.0
13/06/2023,01:50:55,0.000,0.0,0.0,0.0
13/06/2023,01:51:55,0.000,0.0,0.0,0.0
13/06/2023,01:52:54,0.000,0.0,0.0,0.0
13/06/2023,01:53:54,0.000,0.0,0.0,0.0
13/06/2023,01:54:54,0.000,0.0,0.0,0.0
13/06/2023,01:55:54,0.000,0.0,0.0,0.0
13/06/2023,01:56:54,0.000,0.0,0.0,0.0
13/06/2023,01:57:55,0.000,0.0,0.0,0.0
13/06/2023,01:58:54,0.000,0.0,0.0,0.0
13/06/2023,01:59:55,0.000,0.0,0.0,0.0
13/06/2023,02:00:54,0.000,0.0,0.0,0.0
13/06/2023,02:01:54,0.000,0.0,0.0,0.0
13/06/2023,02:02:55,0.000,0.0,0.0,0.0
13/06/2023,02:03:54,0.000,0.0,0.0,0.0
13/06/2023,02:04:55,0.000,0.0,0.0,0.0
13/06/2023,02:05:55,0.000,0.0,0.0,0.0
13/06/2023,02:06:54,0.000,0.0,0.0,0.0
13/06/2023,02:07:55,0.000,0.0,0.0,0.0
13/06/2023,02:08:55,0.000,0.0,0.0,0.0
13/06/2023,02:09:54,0.000,0.0,0.0,0.0
13/06/2023,02:10:55,0.000,0.0,0.0,0.0
13/06/2023,02:11:55,0.000,0.0,0.0,0.0
13/06/2023,02:12:54,0.000,0.0,0.0,0.0
13/06/2023,02:13:54,0.000,0.0,0.0,0.0
13/06/2023,02:14:55,0.000,0.0,0.0,0.0
13/06/2023,02:15:55,0.000,0.0,0.0,0.0
13/06/2023,02:16:54,0.000,0.0,0.0,0.0
13/06/2023,02:17:55,0.001,0.0,0.0,0.0
13/06/2023,02:18:55,0.000,0.0,0.0,0.0
13/06/2023,02:19:55,0.000,0.0,0.0,0.0
13/06/2023,02:20:55,0.000,0.0,0.0,0.0
13/06/2023,02:21:54,0.001,0.0,0.0,0.0
13/06/2023,02:22:55,0.000,0.0,0.0,0.0
13/06/2023,02:23:55,0.001,0.0,0.0,0.0
13/06/2023,02:24:55,0.000,0.0,0.0,0.0
13/06/2023,02:25:54,0.000,0.0,0.0,0.0
13/06/2023,02:26:54,0.001,0.0,0.0,0.0
13/06/2023,02:27:55,0.000,0.0,0.0,0.0
13/06/2023,02:28:55,0.000,0.0,0.0,0.0
13/06/2023,02:29:54,0.000,0.0,0.0,0.0
13/06/2023,02:30:55,0.000,0.0,0.0,0.0
13/06/2023,02:31:54,0.000,0.0,0.0,0.0
13/06/2023,02:32:54,0.000,0.0,0.0,0.0
13/06/2023,02:33:55,0.000,0.0,0.0,0.0
13/06/2023,02:34:54,0.000,0.0,0.0,0.0
13/06/2023,02:35:55,0.000,0.0,0.0,0.0
13/06/2023,02:36:55,0.000,0.0,0.0,0.0
13/06/2023,02:37:54,0.000,0.0,0.0,0.0
13/06/2023,02:38:55,0.000,0.0,0.0,0.0
13/06/2023,02:39:54,0.000,0.0,0.0,0.0
13/06/2023,02:40:55,0.001,0.0,0.0,0.0
13/06/2023,02:41:55,0.001,0.0,0.0,0.0
13/06/2023,02:42:54,0.001,0.0,0.0,0.0
13/06/2023,02:43:55,0.001,0.0,0.0,0.0
13/06/2023,02:44:54,0.000,0.0,0.0,0.0
13/06/2023,02:45:55,0.000,0.0,0.0,0.0
13/06/2023,02:46:55,0.000,0.0,0.0,0.0
13/06/2023,02:47:54,0.000,0.0,0.0,0.0
13/06/2023,02:48:55,0.001,0.0,0.0,0.0
13/06/2023,02:49:55,0.001,0.0,0.0,0.0
13/06/2023,02:50:55,0.001,0.0,0.0,0.0
13/06/2023,02:51:54,0.001,0.0,0.0,0.0
13/06/2023,02:52:55,0.001,0.0,0.0,0.0
13/06/2023,02:53:55,0.001,0.0,0.0,0.0
13/06/2023,02:54:55,0.001,0.0,0.0,0.0
13/06/2023,02:55:55,0.001,0.0,0.0,0.0
13/06/2023,02:56:55,0.001,0.0,0.0,0.0
13/06/2023,02:57:54,0.001,0.0,0.0,0.0
13/06/2023,02:58:54,0.001,0.0,0.0,0.0
13/06/2023,02:59:55,0.001,0.0,0.0,0.0
13/06/2023,03:00:55,0.001,0.0,0.0,0.0
13/06/2023,03:01:55,0.001,0.0,0.0,0.0
13/06/2023,03:02:54,0.000,0.0,0.0,0.0
13/06/2023,03:03:55,0.000,0.0,0.0,0.0
13/06/2023,03:04:54,0.000,0.0,0.0,0.0
13/06/2023,03:05:55,0.000,0.0,0.0,0.0
13/06/2023,03:06:54,0.002,0.0,0.0,0.0
13/06/2023,03:07:54,0.001,0.0,0.0,0.0
13/06/2023,03:08:55,0.001,0.0,0.0,0.0
13/06/2023,03:09:55,0.001,0.0,0.0,0.0
13/06/2023,03:10:55,0.001,0.0,0.0,0.0
13/06/2023,03:11:54,0.001,0.0,0.0,0.0
13/06/2023,03:12:55,0.001,0.0,0.0,0.0
13/06/2023,03:13:55,0.001,0.0,0.0,0.0
13/06/2023,03:14:54,0.001,0.0,0.0,0.0
13/06/2023,03:15:55,0.001,0.0,0.0,0.0
13/06/2023,03:16:54,0.002,0.0,0.0,0.0
13/06/2023,03:17:55,0.000,0.0,0.0,0.0
13/06/2023,03:18:55,0.000,0.0,0.0,0.0
13/06/2023,03:19:54,0.002,0.0,0.0,0.0
13/06/2023,03:20:55,0.000,0.0,0.0,0.0
13/06/2023,03:21:54,0.001,0.0,0.0,0.0
13/06/2023,03:22:55,0.001,0.0,0.0,0.0
13/06/2023,03:23:55,0.002,0.0,0.0,0.0
13/06/2023,03:24:54,0.001,0.0,0.0,0.0
13/06/2023,03:25:55,0.001,0.0,0.0,0.0
13/06/2023,03:26:54,0.001,0.0,0.0,0.0
13/06/2023,03:27:54,0.001,0.0,0.0,0.0
13/06/2023,03:28:55,0.001,0.0,0.0,0.0
13/06/2023,03:29:55,0.001,0.0,0.0,0.0
13/06/2023,03:30:54,0.001,0.0,0.0,0.0
13/06/2023,03:31:55,0.001,0.0,0.0,0.0
13/06/2023,03:32:55,0.001,0.0,0.0,0.0
13/06/2023,03:33:54,0.002,0.0,0.0,0.0
13/06/2023,03:34:55,0.001,0.0,0.0,0.0
13/06/2023,03:35:54,0.001,0.0,0.0,0.0
13/06/2023,03:36:54,0.002,0.0,0.0,0.0
13/06/2023,03:37:55,0.002,0.0,0.0,0.0
13/06/2023,03:38:54,0.002,0.0,0.0,0.0
13/06/2023,03:39:55,0.002,0.0,0.0,0.0
13/06/2023,03:40:54,0.001,0.0,0.0,0.0
13/06/2023,03:41:55,0.002,0.0,0.0,0.0
13/06/2023,03:42:55,0.002,0.0,0.0,0.0
13/06/2023,03:43:54,0.002,0.0,0.0,0.0
13/06/2023,03:44:55,0.003,0.0,0.0,0.0
13/06/2023,03:45:55,0.003,0.0,0.0,0.0
13/06/2023,03:46:55,0.003,0.0,0.0,0.0
13/06/2023,03:47:54,0.003,0.0,0.0,0.0
13/06/2023,03:48:55,0.003,0.0,0.0,0.0
13/06/2023,03:49:54,0.003,0.0,0.0,0.0
13/06/2023,03:50:55,0.004,0.0,0.0,0.0
13/06/2023,03:51:55,0.003,0.0,0.0,0.0
13/06/2023,03:52:55,0.004,0.0,0.0,0.0
13/06/2023,03:53:54,0.004,0.0,0.0,0.0
13/06/2023,03:54:55,0.003,0.0,0.0,0.0
13/06/2023,03:55:55,0.004,0.0,0.0,0.0
13/06/2023,03:56:55,0.004,0.0,0.0,0.0
13/06/2023,03:57:56,0.004,0.0,0.0,0.0
13/06/2023,03:58:54,0.005,0.0,0.0,0.0
13/06/2023,03:59:55,0.004,0.0,0.0,0.0
13/06/2023,04:00:55,0.005,0.0,0.0,0.0
13/06/2023,04:01:54,0.004,0.0,0.0,0.0
13/06/2023,04:02:56,0.005,0.0,0.0,0.0
13/06/2023,04:03:55,0.005,0.0,0.0,0.0
13/06/2023,04:04:55,0.007,0.0,0.0,0.0
13/06/2023,04:05:54,0.006,0.0,0.0,0.0
13/06/2023,04:06:55,0.007,0.0,0.0,0.0
13/06/2023,04:07:54,0.006,0.0,0.0,0.0
13/06/2023,04:08:55,0.006,0.0,0.0,0.0
13/06/2023,04:09:54,0.007,0.0,0.0,0.0
13/06/2023,04:10:55,0.007,0.0,0.001,0.001
13/06/2023,04:11:54,0.008,0.0,0.001,0.0
13/06/2023,04:12:55,0.008,0.0,0.001,0.0
13/06/2023,04:13:55,0.008,0.0,0.001,0.0
13/06/2023,04:14:55,0.008,0.0,0.001,0.0
13/06/2023,04:15:54,0.009,0.0,0.001,0.0
13/06/2023,04:16:55,0.009,0.0,0.001,0.0
13/06/2023,04:17:55,0.010,0.0,0.002,0.001
13/06/2023,04:18:55,0.010,0.0,0.002,0.0
13/06/2023,04:19:55,0.011,0.0,0.002,0.0
13/06/2023,04:20:54,0.010,0.0,0.002,0.0
13/06/2023,04:21:55,0.011,0.0,0.002,0.0
13/06/2023,04:22:54,0.011,0.0,0.002,0.0
13/06/2023,04:23:55,0.012,0.0,0.003,0.001
13/06/2023,04:24:55,0.011,0.0,0.003,0.0
13/06/2023,04:25:54,0.012,0.0,0.003,0.0
13/06/2023,04:26:55,0.013,0.0,0.003,0.0
13/06/2023,04:27:55,0.013,0.0,0.003,0.0
13/06/2023,04:28:54,0.013,0.0,0.004,0.001
13/06/2023,04:29:55,0.014,0.0,0.004,0.0
13/06/2023,04:30:55,0.015,0.0,0.004,0.0
13/06/2023,04:31:54,0.015,0.0,0.004,0.0
13/06/2023,04:32:55,0.016,0.0,0.005,0.001
13/06/2023,04:33:55,0.017,0.0,0.005,0.0
13/06/2023,04:34:55,0.017,0.0,0.005,0.0
13/06/2023,04:35:55,0.017,0.0,0.005,0.0
13/06/2023,04:36:54,0.018,0.0,0.006,0.001
13/06/2023,04:37:55,0.019,0.0,0.006,0.0
13/06/2023,04:38:55,0.020,0.0,0.006,0.0
13/06/2023,04:39:55,0.018,0.0,0.007,0.001
13/06/2023,04:41:24,0.021,0.0,0.007,0.0
13/06/2023,04:42:55,0.021,0.0,0.008,0.001
13/06/2023,04:43:55,0.021,0.0,0.008,0.0
13/06/2023,04:44:54,0.022,0.0,0.008,0.0
13/06/2023,04:45:55,0.024,0.0,0.009,0.001
13/06/2023,04:46:55,0.025,0.0,0.009,0.0
13/06/2023,04:47:55,0.024,0.0,0.01,0.001
13/06/2023,04:48:55,0.025,0.0,0.01,0.0
13/06/2023,04:49:55,0.026,0.0,0.01,0.0
13/06/2023,04:50:55,0.026,0.0,0.011,0.001
13/06/2023,04:51:55,0.027,0.0,0.011,0.0
13/06/2023,04:52:55,0.028,0.0,0.012,0.001
13/06/2023,04:53:55,0.029,0.0,0.012,0.0
13/06/2023,04:54:55,0.030,0.0,0.013,0.001
13/06/2023,04:55:55,0.031,0.0,0.013,0.0
13/06/2023,04:56:55,0.031,0.0,0.014,0.001
13/06/2023,04:57:55,0.032,0.0,0.014,0.0
13/06/2023,04:58:55,0.033,0.0,0.015,0.001
13/06/2023,04:59:54,0.034,0.0,0.015,0.0
13/06/2023,05:00:55,0.035,0.0,0.016,0.001
13/06/2023,05:01:55,0.036,0.0,0.017,0.001
13/06/2023,05:02:55,0.037,0.0,0.017,0.0
13/06/2023,05:03:55,0.038,0.0,0.018,0.001
13/06/2023,05:04:54,0.040,0.0,0.018,0.0
13/06/2023,05:05:55,0.040,0.0,0.019,0.001
13/06/2023,05:06:56,0.041,0.0,0.02,0.001
13/06/2023,05:07:54,0.042,0.0,0.02,0.0
13/06/2023,05:08:55,0.043,0.0,0.021,0.001
13/06/2023,05:09:55,0.043,0.0,0.022,0.001
13/06/2023,05:10:55,0.045,0.0,0.023,0.001
13/06/2023,05:11:55,0.046,0.0,0.023,0.0
13/06/2023,05:12:55,0.047,0.0,0.024,0.001
13/06/2023,05:13:55,0.047,0.0,0.025,0.001
13/06/2023,05:14:55,0.049,0.0,0.026,0.001
13/06/2023,05:15:55,0.051,0.0,0.027,0.001
13/06/2023,05:16:54,0.053,0.0,0.027,0.0
13/06/2023,05:17:55,0.052,0.0,0.028,0.001
13/06/2023,05:18:55,0.054,0.0,0.029,0.001
13/06/2023,05:19:54,0.055,0.0,0.03,0.001
13/06/2023,05:20:55,0.057,0.0,0.031,0.001
13/06/2023,05:21:54,0.058,0.0,0.032,0.001
13/06/2023,05:22:55,0.059,0.0,0.033,0.001
13/06/2023,05:23:55,0.061,0.0,0.034,0.001
13/06/2023,05:24:55,0.062,0.0,0.035,0.001
13/06/2023,05:25:55,0.063,0.0,0.036,0.001
13/06/2023,05:26:55,0.065,0.0,0.037,0.001
13/06/2023,05:27:55,0.066,0.0,0.038,0.001
13/06/2023,05:28:54,0.067,0.0,0.039,0.001
13/06/2023,05:29:55,0.069,0.0,0.04,0.001
13/06/2023,05:30:55,0.071,0.0,0.042,0.002
13/06/2023,05:31:55,0.071,0.0,0.043,0.001
13/06/2023,05:32:55,0.074,0.0,0.044,0.001
13/06/2023,05:33:55,0.076,0.0,0.045,0.001
13/06/2023,05:34:55,0.077,0.0,0.046,0.001
13/06/2023,05:35:55,0.079,0.0,0.048,0.002
13/06/2023,05:36:55,0.080,0.0,0.049,0.001
13/06/2023,05:37:55,0.083,0.0,0.05,0.001
13/06/2023,05:38:55,0.084,0.0,0.052,0.002
13/06/2023,05:39:55,0.086,0.0,0.053,0.001
13/06/2023,05:40:54,0.087,0.0,0.055,0.002
13/06/2023,05:41:54,0.089,0.0,0.056,0.001
13/06/2023,05:42:55,0.092,0.0,0.058,0.002
13/06/2023,05:43:54,0.093,0.0,0.059,0.001
13/06/2023,05:44:55,0.095,0.0,0.061,0.002
13/06/2023,05:45:55,0.097,0.0,0.062,0.001
13/06/2023,05:46:55,0.100,0.0,0.064,0.002
13/06/2023,05:47:55,0.101,0.0,0.066,0.002
13/06/2023,05:48:55,0.102,0.0,0.067,0.001
13/06/2023,05:49:55,0.104,0.0,0.069,0.002
13/06/2023,05:50:55,0.108,0.0,0.071,0.002
13/06/2023,05:51:55,0.110,0.0,0.073,0.002
13/06/2023,05:52:55,0.111,0.0,0.075,0.002
13/06/2023,05:53:55,0.114,0.0,0.076,0.001
13/06/2023,05:54:55,0.116,0.0,0.078,0.002
13/06/2023,05:55:55,0.119,0.0,0.08,0.002
13/06/2023,05:56:55,0.121,0.0,0.082,0.002
13/06/2023,05:57:54,0.123,0.0,0.084,0.002
13/06/2023,05:59:17,0.127,0.0,0.087,0.003
13/06/2023,06:00:55,0.130,0.0,0.091,0.004
13/06/2023,06:01:54,0.132,0.0,0.093,0.002
13/06/2023,06:02:55,0.135,0.0,0.095,0.002
13/06/2023,06:03:55,0.137,0.0,0.097,0.002
13/06/2023,06:04:55,0.141,0.0,0.1,0.003
13/06/2023,06:05:54,0.143,0.0,0.102,0.002
13/06/2023,06:06:55,0.146,0.0,0.105,0.003
13/06/2023,06:07:55,0.148,0.0,0.107,0.002
13/06/2023,06:08:54,0.151,0.0,0.109,0.002
13/06/2023,06:09:55,0.154,0.0,0.112,0.003
13/06/2023,06:10:55,0.157,0.0,0.115,0.003
13/06/2023,06:11:55,0.160,0.0,0.117,0.002
13/06/2023,06:12:55,0.163,0.0,0.12,0.003
13/06/2023,06:13:55,0.166,0.0,0.123,0.003
13/06/2023,06:14:53,0.169,0.0,0.125,0.002
13/06/2023,06:15:55,0.170,0.0,0.128,0.003
13/06/2023,06:16:54,0.174,0.0,0.131,0.003
13/06/2023,06:17:55,0.178,0.0,0.134,0.003
13/06/2023,06:18:55,0.181,0.0,0.137,0.003
13/06/2023,06:19:55,0.185,0.0,0.14,0.003
13/06/2023,06:20:55,0.186,0.0,0.143,0.003
13/06/2023,06:21:54,0.190,0.0,0.146,0.003
13/06/2023,06:22:55,0.193,0.0,0.15,0.004
13/06/2023,06:23:55,0.196,0.0,0.153,0.003
13/06/2023,06:24:55,0.200,0.0,0.156,0.003
13/06/2023,06:25:55,0.203,0.0,0.159,0.003
13/06/2023,06:26:55,0.206,0.0,0.163,0.004
13/06/2023,06:27:55,0.209,0.0,0.166,0.003
13/06/2023,06:28:55,0.214,0.0,0.17,0.004
13/06/2023,06:29:55,0.218,1.0,0.173,0.003
13/06/2023,06:30:55,0.222,1.0,0.177,0.004
13/06/2023,06:31:55,0.226,1.0,0.181,0.004
13/06/2023,06:32:55,0.229,1.0,0.185,0.004
13/06/2023,06:33:55,0.233,1.0,0.188,0.003
13/06/2023,06:34:55,0.237,1.0,0.192,0.004
13/06/2023,06:35:55,0.242,1.0,0.196,0.004
13/06/2023,06:36:55,0.246,1.0,0.2,0.004
13/06/2023,06:37:55,0.249,1.0,0.204,0.004
13/06/2023,06:38:55,0.255,1.0,0.209,0.005
13/06/2023,06:39:55,0.257,1.0,0.213,0.004
13/06/2023,06:40:55,0.261,1.0,0.217,0.004
13/06/2023,06:41:55,0.265,1.0,0.222,0.005
13/06/2023,06:42:55,0.270,1.0,0.226,0.004
13/06/2023,06:43:55,0.274,1.0,0.231,0.005
13/06/2023,06:44:55,0.279,1.0,0.235,0.004
13/06/2023,06:45:55,0.282,1.0,0.24,0.005
13/06/2023,06:46:55,0.287,1.0,0.245,0.005
13/06/2023,06:47:55,0.292,1.0,0.249,0.004
13/06/2023,06:48:55,0.296,1.0,0.254,0.005
13/06/2023,06:49:55,0.301,1.0,0.259,0.005
13/06/2023,06:50:55,0.305,1.0,0.264,0.005
13/06/2023,06:51:55,0.310,1.0,0.27,0.006
13/06/2023,06:52:55,0.316,1.0,0.275,0.005
13/06/2023,06:53:55,0.320,1.0,0.28,0.005
13/06/2023,06:54:55,0.325,1.0,0.285,0.005
13/06/2023,06:55:55,0.330,1.0,0.291,0.006
13/06/2023,06:56:55,0.335,1.0,0.296,0.005
13/06/2023,06:57:55,0.340,1.0,0.302,0.006
13/06/2023,06:58:55,0.344,1.0,0.308,0.006
13/06/2023,06:59:55,0.349,1.0,0.314,0.006
13/06/2023,07:00:55,0.354,1.0,0.319,0.005
13/06/2023,07:01:55,0.358,1.0,0.325,0.006
13/06/2023,07:02:55,0.363,1.0,0.331,0.006
13/06/2023,07:03:56,0.369,1.0,0.338,0.007
13/06/2023,07:04:55,0.375,1.0,0.344,0.006
13/06/2023,07:05:55,0.380,1.0,0.35,0.006
13/06/2023,07:06:55,0.386,1.0,0.356,0.006
13/06/2023,07:07:55,0.392,1.0,0.363,0.007
13/06/2023,07:08:55,0.397,1.0,0.37,0.007
13/06/2023,07:09:55,0.402,1.0,0.376,0.006
13/06/2023,07:10:55,0.408,1.0,0.383,0.007
13/06/2023,07:11:55,0.413,1.0,0.39,0.007
13/06/2023,07:12:55,0.417,1.0,0.397,0.007
13/06/2023,07:13:55,0.425,1.0,0.404,0.007
13/06/2023,07:14:55,0.429,1.0,0.411,0.007
13/06/2023,07:15:55,0.435,1.0,0.418,0.007
13/06/2023,07:16:55,0.442,1.0,0.425,0.007
13/06/2023,07:17:55,0.448,1.0,0.433,0.008
13/06/2023,07:18:55,0.452,1.0,0.44,0.007
13/06/2023,07:19:55,0.459,1.0,0.448,0.008
13/06/2023,07:20:55,0.466,1.0,0.455,0.007
13/06/2023,07:21:55,0.472,1.0,0.463,0.008
13/06/2023,07:22:54,0.477,1.0,0.471,0.008
13/06/2023,07:23:55,0.483,1.0,0.479,0.008
13/06/2023,07:24:55,0.488,1.0,0.487,0.008
13/06/2023,07:25:55,0.494,1.0,0.495,0.008
13/06/2023,07:26:55,0.499,1.0,0.504,0.009
13/06/2023,07:27:55,0.506,1.0,0.512,0.008
13/06/2023,07:28:55,0.513,1.0,0.521,0.009
13/06/2023,07:29:55,0.520,1.0,0.529,0.008
13/06/2023,07:30:55,0.527,1.0,0.538,0.009
13/06/2023,07:31:55,0.533,1.0,0.547,0.009
13/06/2023,07:32:55,0.540,1.0,0.556,0.009
13/06/2023,07:33:55,0.547,1.0,0.565,0.009
13/06/2023,07:34:55,0.554,1.0,0.574,0.009
13/06/2023,07:35:55,0.563,1.0,0.583,0.009
13/06/2023,07:36:55,0.570,1.0,0.593,0.01
13/06/2023,07:37:55,0.576,1.0,0.602,0.009
13/06/2023,07:38:55,0.582,1.0,0.612,0.01
13/06/2023,07:39:55,0.589,1.0,0.622,0.01
13/06/2023,07:40:55,0.596,1.0,0.631,0.009
13/06/2023,07:41:55,0.603,1.0,0.641,0.01
13/06/2023,07:42:55,0.606,1.0,0.651,0.01
13/06/2023,07:43:55,0.618,1.0,0.662,0.011
13/06/2023,07:44:55,0.621,1.0,0.672,0.01
13/06/2023,07:45:55,0.629,1.0,0.683,0.011
13/06/2023,07:46:55,0.636,1.0,0.693,0.01
13/06/2023,07:47:55,0.643,1.0,0.704,0.011
13/06/2023,07:48:56,0.651,1.0,0.715,0.011
13/06/2023,07:49:55,0.655,2.0,0.725,0.01
13/06/2023,07:50:55,0.664,2.0,0.736,0.011
13/06/2023,07:51:55,0.670,2.0,0.747,0.011
13/06/2023,07:52:55,0.680,2.0,0.759,0.012
13/06/2023,07:53:55,0.687,2.0,0.77,0.011
13/06/2023,07:54:55,0.698,2.0,0.782,0.012
13/06/2023,07:55:55,0.703,2.0,0.793,0.011
13/06/2023,07:56:55,0.712,2.0,0.805,0.012
13/06/2023,07:57:55,0.721,2.0,0.817,0.012
13/06/2023,07:58:55,0.728,2.0,0.829,0.012
13/06/2023,07:59:55,0.737,2.0,0.841,0.012
13/06/2023,08:00:55,0.747,2.0,0.854,0.013
13/06/2023,08:01:55,0.754,2.0,0.866,0.012
13/06/2023,08:02:55,0.758,2.0,0.879,0.013
13/06/2023,08:03:55,0.765,2.0,0.892,0.013
13/06/2023,08:04:56,0.771,2.0,0.905,0.013
13/06/2023,08:05:55,0.779,2.0,0.917,0.012
13/06/2023,08:06:55,0.785,2.0,0.931,0.014
13/06/2023,08:07:56,0.799,2.0,0.944,0.013
13/06/2023,08:08:55,0.803,2.0,0.957,0.013
13/06/2023,08:09:55,0.812,2.0,0.97,0.013
13/06/2023,08:10:55,0.817,2.0,0.984,0.014
13/06/2023,08:11:54,0.823,2.0,0.997,0.013
13/06/2023,08:12:56,0.832,2.0,1.012,0.015
13/06/2023,08:13:55,0.842,2.0,1.025,0.013
13/06/2023,08:14:55,0.848,2.0,1.039,0.014
13/06/2023,08:15:55,0.851,2.0,1.054,0.015
13/06/2023,08:16:55,0.855,2.0,1.068,0.014
13/06/2023,08:17:55,0.875,2.0,1.083,0.015
13/06/2023,08:18:55,0.887,2.0,1.097,0.014
13/06/2023,08:19:55,0.887,2.0,1.112,0.015
13/06/2023,08:20:55,0.904,2.0,1.127,0.015
13/06/2023,08:21:55,0.902,2.0,1.142,0.015
13/06/2023,08:22:55,0.914,2.0,1.157,0.015
13/06/2023,08:23:55,0.923,2.0,1.172,0.015
13/06/2023,08:24:55,0.932,2.0,1.188,0.016
13/06/2023,08:25:55,0.938,2.0,1.204,0.016
13/06/2023,08:26:54,0.951,2.0,1.219,0.015
13/06/2023,08:27:55,0.959,2.0,1.235,0.016
13/06/2023,08:28:55,0.969,2.0,1.251,0.016
13/06/2023,08:29:56,0.974,2.0,1.267,0.016
13/06/2023,08:30:55,0.984,2.0,1.283,0.016
13/06/2023,08:31:56,0.989,2.0,1.3,0.017
13/06/2023,08:32:55,1.000,2.0,1.316,0.016
13/06/2023,08:33:56,1.010,2.0,1.334,0.018
13/06/2023,08:34:55,1.016,2.0,1.35,0.016
13/06/2023,08:35:55,1.025,2.0,1.367,0.017
13/06/2023,08:36:56,1.034,2.0,1.385,0.018
13/06/2023,08:37:54,1.038,2.0,1.401,0.016
13/06/2023,08:38:56,1.055,2.0,1.419,0.018
13/06/2023,08:39:55,1.060,2.0,1.436,0.017
13/06/2023,08:40:55,1.070,2.0,1.454,0.018
13/06/2023,08:41:55,1.087,2.0,1.472,0.018
13/06/2023,08:42:55,1.092,3.0,1.491,0.019
13/06/2023,08:43:55,1.102,3.0,1.508,0.017
13/06/2023,08:44:55,1.110,3.0,1.528,0.02
13/06/2023,08:45:56,1.122,3.0,1.546,0.018
13/06/2023,08:46:55,1.130,3.0,1.564,0.018
13/06/2023,08:47:57,1.136,3.0,1.584,0.02
13/06/2023,08:48:55,1.143,3.0,1.603,0.019
13/06/2023,08:49:55,1.149,3.0,1.622,0.019
13/06/2023,08:50:55,1.160,3.0,1.641,0.019
13/06/2023,08:51:55,1.164,3.0,1.66,0.019
13/06/2023,08:52:55,1.170,3.0,1.679,0.019
13/06/2023,08:53:55,1.168,3.0,1.699,0.02
13/06/2023,08:54:55,1.177,3.0,1.718,0.019
13/06/2023,08:55:56,1.179,3.0,1.739,0.021
13/06/2023,08:56:55,1.196,3.0,1.758,0.019
13/06/2023,08:57:55,1.204,3.0,1.779,0.021
13/06/2023,08:58:55,1.209,3.0,1.799,0.02
13/06/2023,08:59:55,1.227,3.0,1.819,0.02
13/06/2023,09:00:55,1.231,3.0,1.839,0.02
13/06/2023,09:01:55,1.248,3.0,1.86,0.021
13/06/2023,09:02:55,1.247,3.0,1.881,0.021
13/06/2023,09:03:55,1.251,3.0,1.902,0.021
13/06/2023,09:04:55,1.259,3.0,1.922,0.02
13/06/2023,09:05:54,1.268,3.0,1.943,0.021
13/06/2023,09:06:55,1.279,3.0,1.964,0.021
13/06/2023,09:07:54,1.285,3.0,1.986,0.022
13/06/2023,09:08:54,1.293,3.0,2.007,0.021
13/06/2023,09:09:55,1.297,3.0,2.029,0.022
13/06/2023,09:10:54,1.295,3.0,2.05,0.021
13/06/2023,09:11:55,1.309,3.0,2.072,0.022
13/06/2023,09:12:54,1.308,3.0,2.094,0.022
13/06/2023,09:13:55,1.320,3.0,2.116,0.022
13/06/2023,09:14:54,1.328,3.0,2.138,0.022
13/06/2023,09:15:55,1.334,3.0,2.16,0.022
13/06/2023,09:16:55,1.333,3.0,2.182,0.022
13/06/2023,09:17:55,1.351,3.0,2.205,0.023
13/06/2023,09:18:55,1.352,3.0,2.227,0.022
13/06/2023,09:19:56,1.356,3.0,2.25,0.023
13/06/2023,09:20:56,1.349,3.0,2.273,0.023
13/06/2023,09:21:55,1.361,3.0,2.296,0.023
13/06/2023,09:22:56,1.378,3.0,2.318,0.022
13/06/2023,09:23:55,1.385,3.0,2.341,0.023
13/06/2023,09:24:55,1.389,3.0,2.364,0.023
13/06/2023,09:25:55,1.390,3.0,2.387,0.023
13/06/2023,09:26:55,1.396,3.0,2.41,0.023
13/06/2023,09:27:55,1.405,3.0,2.433,0.023
13/06/2023,09:28:55,1.417,3.0,2.458,0.025
13/06/2023,09:29:55,1.417,3.0,2.48,0.022
13/06/2023,09:30:56,1.426,3.0,2.505,0.025
13/06/2023,09:31:56,1.442,3.0,2.529,0.024
13/06/2023,09:32:55,1.444,3.0,2.553,0.024
13/06/2023,09:33:55,1.445,3.0,2.576,0.023
13/06/2023,09:34:55,1.456,3.0,2.601,0.025
13/06/2023,09:35:55,1.465,3.0,2.625,0.024
13/06/2023,09:36:55,1.475,3.0,2.65,0.025
13/06/2023,09:37:55,1.479,3.0,2.674,0.024
13/06/2023,09:38:55,1.491,3.0,2.698,0.024
13/06/2023,09:39:55,1.484,3.0,2.724,0.026
13/06/2023,09:40:55,1.489,3.0,2.748,0.024
13/06/2023,09:41:55,1.489,3.0,2.774,0.026
13/06/2023,09:42:56,1.501,3.0,2.799,0.025
13/06/2023,09:43:55,1.500,3.0,2.823,0.024
13/06/2023,09:44:55,1.517,3.0,2.849,0.026
13/06/2023,09:45:55,1.525,4.0,2.873,0.024
13/06/2023,09:46:55,1.532,4.0,2.899,0.026
13/06/2023,09:47:55,1.545,4.0,2.925,0.026
13/06/2023,09:48:55,1.559,4.0,2.95,0.025
13/06/2023,09:49:55,1.566,4.0,2.977,0.027
13/06/2023,09:50:55,1.564,4.0,3.002,0.025
13/06/2023,09:51:55,1.567,4.0,3.028,0.026
13/06/2023,09:52:55,1.584,4.0,3.055,0.027
13/06/2023,09:53:55,1.592,4.0,3.082,0.027
13/06/2023,09:54:55,1.603,4.0,3.108,0.026
13/06/2023,09:55:56,1.604,4.0,3.135,0.027
13/06/2023,09:56:55,1.617,4.0,3.161,0.026
13/06/2023,09:57:55,1.617,4.0,3.189,0.028
13/06/2023,09:58:56,1.625,4.0,3.216,0.027
13/06/2023,09:59:55,1.630,4.0,3.243,0.027
13/06/2023,10:00:55,1.634,4.0,3.27,0.027